Regional Weather Roundup
Issued by NWS

Home | Current Version | Previous Version | Graphics & Text | Print | Product List | Glossary On
Versions: 1 2 3 4 5 6 7 8 9 10 11 12 13 14 15 16 17 18 19 20 21 22 23 24 25 26 27 28 29 30 31 32 33 34 35 36 37 38 39 40 41 42 43 44 45 46 47 48 49 50
000
ASUS43 KMKX 261611
RWRWI

WISCONSIN REGIONAL WEATHER ROUNDUP
NATIONAL WEATHER SERVICE MILWAUKEE/SULLIVAN WI
1100 AM CDT SUN MAR 26 2017

NOTE: "FAIR" INDICATES FEW OR NO CLOUDS BELOW 12,000 FEET WITH NO
SIGNIFICANT WEATHER AND/OR OBSTRUCTIONS TO VISIBILITY.

WIZ001-002-006>008-014>016-023>028-261700-
NORTHWEST WISCONSIN

CITY           SKY/WX    TMP DP  RH WIND       PRES   REMARKS
SUPERIOR ARPT  DRIZZLE   34  34  99 NE7       29.99F WCI  28
ASHLAND        CLOUDY    35  34  96 NE7       29.98F WCI  29
HAYWARD        CLOUDY    38  34  85 NE6       29.95F WCI  33
SIREN          CLOUDY    37  36  94 E5        29.95F WCI  34
CUMBERLAND     CLOUDY    34  34 100 NE6       29.93F FOG     WCI  29
RICE LAKE      CLOUDY    36  35  97 CALM      29.95S
CHETEK         CLOUDY    36  35  94 NE3       29.94S
LADYSMITH      CLOUDY    37  36  94 N5        29.95S FOG     WCI  34
EAU CLAIRE     CLOUDY    37  36  96 NE8       29.92S FOG     WCI  31
MENOMONIE      CLOUDY    38  35  90 N7        29.93S WCI  32
NEW RICHMOND   CLOUDY    37  37 100 NE6       29.94S WCI  32
OSCEOLA        CLOUDY    39  39 100 E5        29.96F
$$

WIZ003>005-009-010-017-018-261700-
NORTH CENTRAL WISCONSIN

CITY           SKY/WX    TMP DP  RH WIND       PRES   REMARKS
MANITOWISH WTR CLOUDY    34  34 100 CALM      29.93F
ARBOR VITAE    CLOUDY    37  35  94 CALM      29.92F FOG
WOODRUFF       CLOUDY    37  35  94 CALM      29.92F FOG
RHINELANDER    CLOUDY    35  34  96 E6        29.93S FOG     WCI  30
EAGLE RIVER    DRIZZLE   34  34 100 E5        29.93S WCI  29
LAND O LAKES   MIX PCPN  34  33  97 E3        29.95F
PHILLIPS       CLOUDY    35  35 100 NE5       29.92F WCI  31
TOMAHAWK       CLOUDY    34  33  95 E5        29.94S FOG     WCI  30
MEDFORD        RAIN      35  33  95 NE6       29.91S WCI  30
MERRILL        DRIZZLE   35  35 100 E3        29.93F
$$

WIZ029-030-035-036-043>047-261700-
CENTRAL WISCONSIN

CITY           SKY/WX    TMP DP  RH WIND       PRES   REMARKS
WAUSAU         LGT RAIN  35  34  96 E6        29.91F WCI  30
MOSINEE        LGT RAIN  34  34 100 NE10      29.92S FOG     WCI  26
MARSHFIELD     LGT RAIN  35  33  92 E10       29.89F FOG     WCI  27
STEVENS POINT  CLOUDY    33  33 100 E6        29.91F FOG     WCI  28
WAUPACA        CLOUDY    38  37  96 NE7       29.92F FOG     WCI  33
WAUTOMA        MIX PCPN  37  36  96 NE7       29.90F FOG     WCI  32
WISC RAPIDS    CLOUDY    36  36 100 E9        29.92S FOG     WCI  29
CAMP DOUGLAS   CLOUDY    37  37 100 E7        29.89S FOG     WCI  32
$$

WIZ011>013-019>022-031-037>040-048>050-261700-
NORTHEAST WISCONSIN

CITY           SKY/WX    TMP DP  RH WIND       PRES   REMARKS
ANTIGO         MIX PCPN  32  32 100 NE5       29.93S WCI  28
SHAWANO        DRIZZLE   37  35  93 NE8       29.94F WCI  30
OCONTO         CLOUDY    35  35  97 NE7       29.95F WCI  30
STURGEON BAY   LGT RAIN  37  36  96 NE7       29.95F FOG     WCI  32
GREEN BAY      RAIN      37  37 100 NE12      29.93F FOG     WCI  29
MANITOWOC      LGT RAIN  40  38  93 NE6       29.91F
APPLETON       LGT RAIN  36  36 100 NE8       29.90F FOG     WCI  29
CLINTONVILLE   LGT RAIN  36  34  93 NE8       29.93F WCI  29
OSHKOSH        LGT RAIN  38  37  97 NE8       29.89F FOG     WCI  32
$$

WIZ032>034-041-042-053>061-261700-
SOUTHWEST WISCONSIN

CITY           SKY/WX    TMP DP  RH WIND       PRES   REMARKS
LA CROSSE      CLOUDY    41  38  89 CALM      29.90S FOG
SPARTA         CLOUDY    37  37 100 E6        29.90S FOG     WCI  32
VIROQUA        CLOUDY    38  38 100 NE6       29.86S VSB 1/4 WCI  33
BOSCOBEL       LGT RAIN  42  40  92 VRB3      29.87F FOG
PRAIRIE DU CHI LGT RAIN  41  40  97 NW5       29.86S
PLATTEVILLE    CLOUDY    44  44 100 NE8       29.84S VSB 1/4
$$

WIZ056-057-062-063-064-067-068-261700-
SOUTH CENTRAL WISCONSIN

CITY           SKY/WX    TMP DP  RH WIND       PRES   REMARKS
REEDSBURG      DRIZZLE   38  38 100 NE3       29.87F
BARABOO/DELLS  LGT RAIN  37  37  99 NE7       29.87F WCI  32
LONE ROCK      LGT RAIN  43  40  89 NE3       29.87S FOG
MINERAL POINT  FOG       43  43 100 NE7       29.84F VSB 1/2
MADISON        LGT RAIN  42  42 100 NE5       29.86S FOG
MIDDLETON      CLOUDY    43  43 100 NE5       29.86S
WATERTOWN      DRIZZLE   42  42 100 E5        29.85F
MONROE         RAIN      43  43 100 NE7       29.83S VSB<1/4
JANESVILLE     DRIZZLE   45  45 100 NE6       29.84F
$$

WIZ051-052-058>065-066-070>072-261700-
SOUTHEAST WISCONSIN

CITY           SKY/WX    TMP DP  RH WIND       PRES   REMARKS
MILWAUKEE      LGT RAIN  41  39  93 NE7       29.87F VSB 1/4
WAUKESHA       LGT RAIN  39  39 100 NE6       29.87F FOG     WCI  35
MILWAUKEE/TIMM RAIN      39  37  93 NE6       29.88F FOG     WCI  35
RACINE         LGT RAIN  42  41  96 NE5       29.88S FOG
KENOSHA        LGT RAIN  44  43  96 E7        29.85F FOG
FOND DU LAC    RAIN      40  37  89 NE7       29.88F FOG
SHEBOYGAN      LGT RAIN  39  38  96 NE9       29.89F FOG     WCI  33
WEST BEND      RAIN      41  41 100 E6        29.87F
JUNEAU         RAIN      40  40  99 NE6       29.87F
$$

LSZ147-162-261700-
LAKE SUPERIOR

STATION/POSITION TIME  TEMP    WIND        PRES    WAVE
                       AIR SEA DIR/SP/G            HT/PER
                 (UTC) (F)     (DEG/KT/KT) (MB)    (FT/S)
DEVILS ISLAND    1600   34      40/  6/  7 1016.5S
PORT WING        1530   34      40/  8/  9 1015.6F
SAXON HARBOR     1540   33     300/  5/  7 1015.2S
$$

LMZ867-665-643>646-261700-
LAKE MICHIGAN

STATION/POSITION TIME  TEMP    WIND        PRES    WAVE
                       AIR SEA DIR/SP/G            HT/PER
                 (UTC) (F)     (DEG/KT/KT) (MB)    (FT/S)
CHAMBERS ISLAND  1540   35      60/  7/ 10 1014.6F
NORTHPORT PIER   1540   34      70/  8/ 10 1015.2S
SISTER BAY       1436   35     110/  9/ 14   N/A
KEWAUNEE LAKESHO 1548   36      40/  6/  9 1013.2F
SHEBOYGAN LAKESH 1600   37      20/ 10/ 11 1012.7F
PORT WASHINGTON  1540   39      40/ 12/ 13 1013.2F
MILWAUKEE LAKESH 1550   38      50/ 11/ 12   N/A
KENOSHA   LAKESH 1600   39      20/  8/  9 1011.2
$$

TC  - TEMPERATURE IN CELSIUS
VSB - VISIBILITY IN STATUTE MILES
WCI - WIND CHILL INDEX
HX  - HEAT INDEX




USA.gov is the U.S. government's official web portal to all federal, state and local government web resources and services.